Theta_e
306 304 305 308 310 311 310 312 314 314 315 316 316 317 317 317 317 318 319 319 320 321 321 322 323 324 324 324 326 327 328 328 328 328 328 328 328 329 331 333 336 337 338 336
304 304 306 307 308 309 309 310 310 312 313 314 314 314 313 314 315 317 318 318 319 320 321 321 322 324 324 323 324 324 326 328 328 328 328 327 327 329 332 336 338 339 339 338
304 305 307 308 308 309 309 309 310 312 313 313 313 315 315 314 314 315 316 317 318 319 320 321 322 323 323 322 323 324 325 327 327 327 327 328 330 333 335 337 340 340 339 339
304 304 305 306 307 307 307 310 311 313 313 314 313 315 314 314 314 314 315 316 317 318 319 320 321 321 322 322 322 324 325 327 328 328 328 328 330 333 333 337 341 341 342 338
306 305 305 304 305 307 308 309 309 309 310 311 312 312 314 313 313 312 313 314 315 316 317 317 318 319 320 321 322 324 325 327 327 327 329 332 334 336 338 341 342 342 337 334
307 306 305 304 305 306 307 309 309 310 310 311 311 312 313 312 313 312 313 314 316 317 318 319 320 322 321 322 323 324 324 326 328 331 333 336 338 340 341 341 341 337 333 332
310 306 307 306 305 305 305 306 308 310 311 311 311 312 313 312 312 313 313 315 317 318 319 319 320 320 322 323 327 327 328 332 335 337 341 342 342 342 341 340 338 334 332 332
312 310 308 309 305 305 304 304 307 313 312 309 313 313 313 312 313 314 314 316 316 317 319 319 320 322 327 330 333 336 338 338 340 343 344 344 343 342 340 340 333 331 332 332
312 312 311 310 310 308 307 304 305 305 307 308 310 311 312 313 313 313 313 316 317 320 319 318 322 330 334 338 340 339 338 340 344 344 343 343 342 341 337 332 332 333 333 331
309 310 309 311 310 309 307 307 305 303 308 311 311 311 313 313 313 314 313 312 317 320 321 327 334 336 341 340 340 341 341 341 342 342 341 339 336 333 332 332 332 331 330 327
307 307 308 308 308 305 308 308 308 304 306 311 313 312 311 312 312 312 312 318 328 321 331 336 337 339 338 339 342 341 341 340 340 339 336 335 333 332 332 331 330 329 327 325
308 308 310 309 307 307 307 308 309 308 309 306 308 309 309 311 311 311 314 329 331 330 338 338 339 338 340 341 343 342 341 339 335 333 333 332 331 329 329 329 328 328 325 324
308 306 308 307 309 308 309 310 308 309 310 310 309 309 310 310 311 313 313 329 333 337 339 339 339 340 341 342 342 340 337 334 333 332 331 328 325 327 328 328 327 326 326 326
308 305 306 305 308 308 309 310 309 312 312 310 309 310 311 311 312 313 316 324 333 336 338 338 339 339 340 340 338 336 334 333 331 327 324 326 327 328 329 327 326 326 325 326
305 308 307 307 308 309 309 310 310 311 312 314 313 313 313 312 312 313 317 325 334 336 336 338 339 339 339 337 336 334 333 331 326 326 327 327 327 328 329 327 325 326 325 325
306 308 308 308 308 309 311 309 309 310 311 311 313 313 311 312 313 314 320 329 333 335 337 337 337 337 337 335 334 333 331 325 325 327 328 327 327 328 328 326 324 326 325 325
308 309 308 307 308 308 307 306 307 308 311 311 313 311 311 313 315 317 322 329 333 335 337 337 336 335 335 334 333 331 327 325 327 328 328 328 328 328 327 325 325 325 325 325
310 308 307 307 304 305 306 310 313 311 311 311 311 311 313 316 320 323 325 330 334 335 336 336 335 335 333 330 330 330 324 327 329 330 329 329 327 326 327 326 326 325 325 324
307 308 308 306 307 309 309 313 315 315 315 314 312 311 313 321 324 327 330 331 334 334 336 336 334 334 332 331 328 326 327 329 330 331 330 328 327 325 324 325 326 326 325 325
308 307 308 309 310 311 313 312 310 312 316 320 320 321 322 321 327 328 330 332 333 334 335 336 335 334 333 331 327 328 329 330 330 329 329 328 328 325 325 326 324 325 326 325
311 310 309 309 310 309 311 309 307 319 317 318 319 318 318 321 324 327 331 331 333 334 333 335 334 333 328 329 327 328 329 329 329 328 329 328 328 326 325 326 326 326 327 327
312 312 311 311 311 312 306 306 314 315 316 317 318 319 318 320 325 327 327 328 331 331 332 334 334 333 329 327 327 328 328 328 329 328 329 329 327 327 327 327 327 328 328 328
311 308 309 310 311 306 303 304 306 309 309 317 317 320 321 320 323 327 327 328 328 331 332 333 334 333 333 331 327 327 327 328 328 329 329 327 327 328 328 328 328 328 328 328
308 305 306 307 307 307 307 306 314 315 315 316 317 318 319 319 323 325 327 327 329 331 331 333 333 333 334 333 330 326 326 328 328 329 329 328 328 328 328 328 329 328 328 327
310 310 310 309 309 309 308 310 312 314 314 314 315 316 317 319 321 324 326 329 331 332 331 332 333 333 334 334 333 329 326 328 327 328 329 329 329 329 328 329 327 329 328 328
309 310 311 312 311 310 311 310 311 311 313 313 312 314 315 319 322 325 324 326 330 331 331 331 332 333 333 334 332 329 326 326 328 328 329 330 329 329 329 324 327 328 329 329
Wind_Speed
6 4 14 15 16 5 4 2 1 3 4 4 17 21 16 13 21 22 30 34 38 42 45 45 43 39 33 32 31 25 27 26 26 27 30 33 35 36 36 35 28 24 20 19
5 10 8 5 7 10 6 1 3 5 8 4 7 12 9 8 14 22 29 30 33 39 43 41 39 33 35 33 28 27 26 25 25 29 31 32 32 36 35 24 19 17 19 20
6 8 3 7 5 5 4 9 3 6 8 12 8 18 12 8 16 27 31 33 38 37 40 39 35 33 32 35 33 32 29 32 30 30 30 31 31 27 23 22 18 20 18 16
5 7 6 6 9 7 5 3 1 2 3 8 2 9 15 15 18 14 19 29 32 37 37 38 35 36 37 35 35 30 27 27 27 27 29 30 27 24 21 18 17 20 18 14
11 4 3 5 6 7 9 8 8 7 6 3 3 5 13 5 11 12 16 31 36 45 44 44 43 43 39 37 36 29 23 25 26 25 24 21 19 16 14 16 19 19 15 18
24 7 5 7 7 9 6 6 4 1 2 7 7 6 21 9 12 7 15 25 32 31 30 29 27 22 25 26 28 28 24 24 22 19 15 15 12 13 18 21 23 15 20 19
10 14 11 5 3 2 5 5 2 1 2 12 12 9 24 4 6 4 9 15 18 18 20 23 21 23 23 24 19 13 14 16 15 14 13 12 10 11 16 20 18 14 17 15
3 2 6 5 11 7 7 7 5 6 6 5 6 12 8 11 13 18 14 18 24 27 23 20 19 20 15 9 10 14 17 17 17 16 17 15 13 13 14 13 13 11 11 11
2 4 5 2 2 9 4 4 7 3 3 1 5 7 8 16 10 8 9 19 24 25 21 20 17 9 7 13 16 17 18 19 19 20 20 18 16 15 14 13 12 12 12 10
3 4 7 6 5 5 4 4 3 1 4 5 6 6 6 6 2 4 8 11 27 25 12 10 10 12 17 19 19 19 19 20 21 20 19 19 18 16 14 14 15 13 10 8
4 0 5 2 3 4 1 1 2 2 5 4 2 5 6 15 4 8 10 20 28 11 13 14 17 21 21 20 21 21 20 22 22 20 20 19 17 16 15 14 12 9 8 7
1 1 4 5 5 5 2 3 1 4 8 4 3 6 6 6 7 8 13 23 15 4 15 21 25 25 24 23 23 23 23 22 21 20 17 16 15 12 11 10 9 9 10 11
1 1 3 5 3 5 2 3 3 1 0 5 4 7 5 9 14 18 14 19 5 7 14 26 27 26 25 25 25 26 24 23 20 18 16 14 13 10 9 8 7 12 13 14
1 2 5 5 2 2 4 8 8 3 3 5 10 9 22 19 12 16 21 19 4 8 13 21 28 26 26 26 27 27 25 22 19 17 16 14 11 8 7 8 10 14 13 11
4 4 3 8 11 8 8 13 13 15 13 8 3 2 16 14 15 18 23 21 11 14 17 21 26 28 29 29 29 27 24 21 19 19 16 12 11 8 6 9 10 14 14 8
6 4 2 11 10 11 14 17 16 15 19 16 14 15 16 19 20 17 19 21 16 21 24 24 24 29 31 31 30 27 25 21 21 20 16 13 9 6 7 9 11 18 13 7
5 2 1 4 5 4 11 16 22 18 14 13 14 11 15 13 12 8 17 20 18 25 28 27 27 30 31 31 30 28 25 24 21 18 15 12 10 8 13 14 18 14 11 7
3 6 3 3 2 3 6 10 12 15 11 15 8 15 12 10 22 29 25 16 18 24 27 28 28 30 29 30 28 26 25 25 20 15 13 10 9 11 14 16 14 13 10 8
14 4 2 3 3 9 12 2 5 5 5 10 15 16 13 22 21 10 8 12 18 20 25 26 26 28 27 28 26 25 26 22 18 15 12 11 10 12 13 15 15 13 9 9
11 13 6 3 3 4 1 3 11 10 7 3 3 7 10 9 4 4 9 10 14 15 20 24 25 26 26 26 25 26 25 21 16 13 11 11 10 13 12 11 12 9 8 6
1 4 12 8 4 6 5 8 9 5 1 8 8 11 12 6 7 6 13 13 11 13 12 22 25 27 25 26 27 26 23 20 16 13 10 10 9 12 11 10 10 8 7 8
2 2 3 3 4 6 12 12 5 4 7 10 12 10 11 14 9 8 15 15 13 6 13 22 28 29 26 27 28 25 22 18 17 14 11 9 12 13 11 8 8 7 6 7
3 2 3 2 2 8 17 18 29 33 20 8 8 10 7 2 10 15 11 18 16 7 15 25 29 30 29 29 27 25 21 20 17 14 13 12 13 12 10 8 5 6 6 5
3 6 2 3 3 7 15 31 11 12 24 16 19 12 9 9 16 21 18 20 22 17 24 25 31 30 30 28 28 23 19 20 18 16 14 12 12 10 9 8 5 5 3 3
4 5 5 4 5 10 12 28 21 29 28 29 25 19 15 15 19 21 19 13 13 14 20 27 31 30 30 26 26 24 20 21 20 17 16 14 12 10 7 7 6 4 4 4
3 3 3 3 11 10 11 22 25 31 28 27 26 23 19 22 24 20 21 18 11 8 12 21 26 29 28 25 25 24 22 20 21 18 17 16 14 11 8 6 9 8 5 6
Wind_Direction
268 194 217 215 224 252 38 68 83 335 265 216 224 250 252 252 260 262 264 265 267 270 275 279 282 282 289 289 288 289 282 282 269 249 247 239 237 242 247 252 257 257 237 224
331 258 240 235 206 248 270 280 248 266 258 227 285 279 275 259 257 251 256 260 263 270 277 277 276 278 277 290 288 286 286 276 263 247 249 240 243 243 246 254 252 233 216 220
202 263 319 208 214 213 206 229 226 221 296 286 291 283 271 248 242 250 257 259 261 262 270 274 272 269 276 286 286 287 276 269 258 249 244 238 239 242 244 238 224 213 212 214
210 252 228 244 233 221 217 175 299 314 177 257 45 283 279 271 262 252 254 259 261 266 266 267 269 272 277 281 284 288 275 257 251 242 241 242 243 244 246 230 207 202 204 195
270 224 233 225 209 182 247 194 226 236 267 310 260 305 273 218 258 256 253 256 256 261 263 267 270 273 277 273 276 274 269 245 241 240 236 236 240 238 225 194 195 191 187 195
241 249 187 223 244 215 205 179 180 156 130 257 205 191 277 243 250 232 243 251 259 266 268 270 274 271 277 277 276 271 249 235 229 220 220 218 208 194 183 180 180 189 177 186
322 228 236 230 238 237 189 119 128 128 187 233 176 190 236 254 309 238 275 274 269 269 274 276 276 278 282 283 263 235 209 196 184 182 179 173 174 186 184 180 180 181 177 188
286 225 178 201 199 193 201 172 166 171 188 227 142 226 245 226 249 267 280 284 286 282 274 282 273 279 278 235 184 166 159 160 160 155 154 158 163 171 173 175 173 175 185 197
246 289 332 328 257 155 172 163 214 24 287 124 213 277 286 280 281 282 299 303 301 303 292 260 257 250 190 160 153 154 156 156 150 152 155 156 162 162 163 164 171 177 185 198
308 302 140 272 344 268 163 170 106 317 208 229 249 256 236 292 339 331 331 296 304 309 264 213 190 168 152 154 154 155 155 152 152 155 155 153 156 159 168 176 174 179 195 214
3 156 295 345 203 211 24 262 223 198 176 210 298 267 228 221 324 351 313 312 327 279 189 171 163 156 155 155 155 153 154 151 151 152 151 152 156 158 163 173 183 194 197 191
5 302 277 263 274 332 5 293 258 199 243 264 123 286 313 77 52 10 336 338 346 189 169 159 157 155 156 155 158 156 153 150 148 148 148 150 151 157 170 176 187 190 173 161
217 256 311 326 14 39 359 315 269 223 301 218 224 245 256 338 6 341 332 327 342 157 164 158 156 158 157 160 161 158 156 152 151 151 148 144 142 130 146 150 157 164 160 158
259 205 214 214 229 165 292 294 306 221 254 263 245 299 280 301 340 330 328 323 235 168 166 166 159 162 162 163 163 160 158 156 153 149 139 138 140 140 143 150 151 158 160 161
155 241 231 261 273 279 256 266 276 270 253 254 311 269 286 309 311 300 310 313 202 178 175 175 169 166 166 165 164 164 162 159 153 146 141 143 157 160 156 158 164 166 161 155
183 244 305 287 259 250 264 264 250 255 254 259 258 270 279 275 281 282 307 313 204 187 178 184 182 170 169 169 168 168 165 159 152 160 169 174 167 170 168 163 169 161 159 153
176 208 188 255 242 300 274 253 250 248 225 218 234 245 260 275 277 282 308 302 211 194 186 187 183 180 174 174 172 170 166 162 165 178 184 182 179 181 169 158 154 160 159 167
209 182 187 264 11 258 247 314 297 231 224 219 231 243 250 284 285 286 288 266 215 195 191 187 184 186 178 173 172 169 169 173 182 190 194 184 169 172 168 174 173 178 175 181
204 188 245 235 213 286 290 24 11 347 278 238 239 261 269 286 298 262 241 240 209 196 194 189 188 188 180 173 171 170 174 183 189 196 196 186 168 165 157 162 173 177 175 181
192 210 207 171 237 266 241 31 342 323 260 185 242 272 270 294 224 246 168 169 166 175 199 192 190 187 183 178 171 170 177 188 196 188 189 183 172 171 168 173 179 186 193 200
181 183 219 226 252 278 47 333 313 235 224 322 322 290 285 245 223 196 158 128 139 177 194 198 191 187 178 176 175 178 185 193 186 183 186 181 169 168 168 178 192 205 211 211
304 295 207 215 227 251 7 325 232 10 314 321 304 285 279 282 251 194 194 199 160 126 196 207 192 188 179 179 179 184 186 180 184 182 176 167 162 166 179 188 193 208 221 207
302 253 286 263 306 315 301 271 277 274 267 320 315 347 322 309 113 120 165 160 150 289 215 209 199 192 194 191 188 188 186 189 194 187 178 157 159 178 193 200 212 218 190 189
261 216 238 305 232 286 322 315 347 55 43 37 45 29 61 67 103 114 141 163 208 233 206 204 205 198 198 198 199 194 187 190 195 193 184 169 168 181 201 209 236 218 176 170
250 296 286 258 270 335 352 342 18 41 44 51 47 39 45 67 89 106 111 147 178 203 198 204 207 201 200 197 203 198 192 190 196 194 196 188 181 188 204 203 185 159 119 94
318 302 346 334 347 343 8 357 28 31 29 39 26 29 34 63 71 91 91 95 114 141 184 202 210 205 200 198 201 196 191 191 194 200 203 200 194 191 193 186 168 151 131 118